Zurück zum Katalog

SAUDICOMSAT 5

AktivKommunikationSSO
NORAD 31124·PAYLOAD·🇸🇦 Saudi Arabia

Gestartet Apr 17, 2007 von Baikonur Cosmodrome

Loading…

Nächste Überflüge (nächste 24 Stunden)

TLE

AktuellSource: Space-Track

Epoche: Sep 14, 2026, 08:43 UTC

1 31124U 07012H   26257.36361351  .00000392  00000-0  76146-4 0  9993
2 31124  98.3603 234.1042 0046680 203.6495 156.2563 14.68255219 36685

Verfolge SAUDICOMSAT 5 in Echtzeit mit AllMySat

Download on the App Store